GW2699 Weather Reports


time (UTC)temp
F
wind
direction
speed
knots
gust
knots
rain 1hr
in
rain 24hr
in
rain mn
in
humidity
%
barometer
mb
20260505140542 68 209 3.5 9.6 0.00 0.00 0.00 53 1008.2
20260505130114 66 47 1.7 8.7 0.00 0.00 0.00 57 1008.3
20260505124602 64 254 1.7 7.0 0.00 0.00 0.00 59 1008.1
20260505124043 63 74 1.7 6.1 0.00 0.00 0.00 62 1008.2
20260505123543 63 166 1.7 5.2 0.00 0.00 0.00 63 1008.2
20260505123113 62 221 0.9 7.0 0.00 0.00 0.00 63 1008.2
20260505122543 62 191 3.5 7.0 0.00 0.00 0.00 59 1008.2
20260505122043 62 220 2.6 7.0 0.00 0.00 0.00 61 1008.2
20260505121551 62 282 1.7 7.0 0.00 0.00 0.00 61 1008.0
20260505121046 62 158 1.7 6.1 0.00 0.00 0.00 63 1008.1
20260505120544 62 209 1.7 7.0 0.00 0.00 0.00 63 1008.0
20260505115543 60 254 1.7 5.2 0.00 0.00 0.00 66 1007.9
20260505115046 60 200 0.9 4.3 0.00 0.00 0.00 65 1007.9
20260505114549 59 213 1.7 6.1 0.00 0.00 0.00 66 1008.0
20260505114045 59 225 1.7 6.1 0.00 0.00 0.00 66 1008.0
20260505113544 59 221 1.7 4.3 0.00 0.00 0.00 66 1008.2
20260505113054 58 232 1.7 4.3 0.00 0.00 0.00 67 1008.1
20260505112545 58 210 0.9 4.3 0.00 0.00 0.00 67 1008.2
20260505112043 58 146 0.9 3.5 0.00 0.00 0.00 68 1008.2
20260505111549 57 0 0.0 6.1 0.00 0.00 0.00 69 1008.1
20260505111044 57 0 1.7 6.1 0.00 0.00 0.00 69 1008.2
20260505110545 56 0 0.0 3.5 0.00 0.00 0.00 71 1008.2
20260505110111 55 0 0.0 2.6 0.00 0.00 0.00 71 1008.1
20260505102043 52 0 0.0 0.0 0.00 0.00 0.00 74 1008.2
20260505101553 52 0 0.0 0.0 0.00 0.00 0.00 74 1008.2
20260505101045 52 0 0.0 0.0 0.00 0.00 0.00 74 1008.2
20260505100544 52 0 0.0 0.0 0.00 0.00 0.00 75 1008.1
20260505100051 51 0 0.0 0.9 0.00 0.00 0.00 75 1008.1
20260505095542 51 0 0.0 0.9 0.00 0.00 0.00 75 1008.2
20260505095043 51 0 0.0 1.7 0.00 0.00 0.00 76 1008.2
20260505094549 51 0 0.0 1.7 0.00 0.00 0.00 76 1008.2
20260505094043 51 0 0.0 1.7 0.00 0.00 0.00 75 1008.2
20260505093543 51 0 0.0 0.9 0.00 0.00 0.00 75 1008.3
20260505093047 51 0 0.0 0.9 0.00 0.00 0.00 75 1008.3
20260505092544 51 0 0.0 0.0 0.00 0.00 0.00 75 1008.2
20260505092045 51 0 0.0 0.0 0.00 0.00 0.00 75 1008.2
20260505091552 51 0 0.0 0.0 0.00 0.00 0.00 75 1008.2
20260505091043 51 0 0.0 0.0 0.00 0.00 0.00 74 1008.2
20260505090543 51 0 0.0 0.0 0.00 0.00 0.00 74 1008.2
20260505090050 51 0 0.0 0.0 0.00 0.00 0.00 74 1008.1
20260505085543 51 0 0.0 0.0 0.00 0.00 0.00 74 1008.1
20260505085043 51 0 0.0 1.7 0.00 0.00 0.00 73 1008.2
20260505084549 52 0 0.0 1.7 0.00 0.00 0.00 73 1008.3
20260505084042 52 0 0.0 1.7 0.00 0.00 0.00 72 1008.2
20260505083547 52 0 0.0 0.9 0.00 0.00 0.00 72 1008.3
20260505083050 52 0 0.0 2.6 0.00 0.00 0.00 72 1008.5
20260505082543 52 0 0.0 2.6 0.00 0.00 0.00 71 1008.5
20260505082045 52 0 0.0 1.7 0.00 0.00 0.00 70 1008.6
20260505081554 52 0 0.0 1.7 0.00 0.00 0.00 70 1008.6
20260505081044 53 184 0.9 1.7 0.00 0.00 0.00 69 1008.6
20260505080543 53 0 0.0 1.7 0.00 0.00 0.00 69 1008.6
20260505080050 53 0 0.0 1.7 0.00 0.00 0.00 68 1008.7
20260505075545 53 0 0.0 1.7 0.00 0.00 0.00 68 1008.7
20260505075043 53 184 0.0 1.7 0.00 0.00 0.00 67 1008.7
20260505074549 54 0 0.0 1.7 0.00 0.00 0.00 67 1008.7
20260505074043 54 0 0.9 1.7 0.00 0.00 0.00 67 1008.7
20260505073543 54 0 0.9 1.7 0.00 0.00 0.00 67 1008.8
20260505073052 54 0 0.0 2.6 0.00 0.00 0.00 66 1008.7
20260505072542 54 0 0.0 2.6 0.00 0.00 0.00 66 1008.7
20260505072046 54 184 0.0 2.6 0.00 0.00 0.00 66 1008.7
20260505071554 54 173 0.9 4.3 0.00 0.00 0.00 65 1008.6
20260505071042 55 0 0.0 4.3 0.00 0.00 0.00 65 1008.6
20260505070545 55 162 0.0 1.7 0.00 0.00 0.00 64 1008.6
20260505070050 55 0 0.0 1.7 0.00 0.00 0.00 64 1008.7
20260505065542 55 0 0.0 5.2 0.00 0.00 0.00 63 1008.7
20260505065041 56 0 0.9 5.2 0.00 0.00 0.00 62 1008.6
20260505064550 55 194 0.9 5.2 0.00 0.00 0.00 63 1008.6
20260505064042 55 184 0.9 4.3 0.00 0.00 0.00 63 1008.7
20260505063542 55 169 0.0 4.3 0.00 0.00 0.00 64 1008.6
20260505063058 55 172 0.0 4.3 0.00 0.00 0.00 63 1008.6
20260505062542 55 206 0.9 3.5 0.00 0.00 0.00 63 1008.7
20260505062043 56 206 1.7 4.3 0.00 0.00 0.00 62 1008.6
20260505061606 56 179 0.9 4.3 0.00 0.00 0.00 62 1008.6
20260505061042 56 215 1.7 4.3 0.00 0.00 0.00 62 1008.6
20260505060545 56 217 0.9 5.2 0.00 0.00 0.00 62 1008.7
20260505060056 56 194 0.9 5.2 0.00 0.00 0.00 62 1008.6
20260505055542 56 194 1.7 5.2 0.00 0.00 0.00 60 1008.7
20260505055042 56 234 2.6 6.1 0.00 0.00 0.00 60 1008.8
20260505054555 56 178 0.9 6.1 0.00 0.00 0.00 60 1008.8
20260505054043 56 205 0.0 2.6 0.00 0.00 0.00 60 1008.8
20260505053542 57 213 0.9 3.5 0.00 0.00 0.00 59 1008.8
20260505053102 57 193 1.7 5.2 0.00 0.00 0.00 59 1008.7
20260505052544 57 175 1.7 6.1 0.00 0.00 0.00 59 1008.6
20260505052044 57 220 0.9 7.0 0.00 0.00 0.00 58 1008.7
20260505051550 57 234 0.0 7.0 0.00 0.00 0.00 58 1008.8
20260505051044 57 274 1.7 6.1 0.00 0.00 0.00 57 1008.8
20260505050543 57 205 1.7 7.0 0.00 0.00 0.00 58 1008.8
20260505041553 59 219 0.9 4.3 0.00 0.00 0.00 54 1008.8
20260505041041 59 221 1.7 6.1 0.00 0.00 0.00 53 1008.6
20260505040543 59 201 1.7 7.0 0.00 0.00 0.00 53 1008.7
20260505040055 59 209 1.7 7.0 0.00 0.00 0.00 53 1008.6
20260505035542 59 184 1.7 5.2 0.00 0.00 0.00 54 1008.5
20260505035043 59 217 0.9 4.3 0.00 0.00 0.00 53 1008.5
20260505034554 59 223 0.9 7.0 0.00 0.00 0.00 54 1008.4
20260505034044 60 216 0.9 7.8 0.00 0.00 0.00 52 1008.4
20260505033544 60 175 2.6 7.8 0.00 0.00 0.00 51 1008.4
20260505033130 60 225 2.6 13.0 0.00 0.00 0.00 52 1008.4
20260505032544 60 223 3.5 13.0 0.00 0.00 0.00 51 1008.4
20260505032044 60 207 2.6 7.0 0.00 0.00 0.00 52 1008.3
20260505031546 60 218 2.6 7.0 0.00 0.00 0.00 51 1008.4
20260505031043 61 180 2.6 7.8 0.00 0.00 0.00 52 1008.2
20260505030543 61 205 1.7 10.4 0.00 0.00 0.00 51 1008.3
20260505030052 60 186 1.7 10.4 0.00 0.00 0.00 53 1008.4
20260505025546 61 225 1.7 7.8 0.00 0.00 0.00 51 1008.3
20260505025044 61 251 1.7 7.8 0.00 0.00 0.00 51 1008.3
20260505024551 62 193 3.5 7.8 0.00 0.00 0.00 50 1008.3
20260505024045 62 229 3.5 7.8 0.00 0.00 0.00 49 1008.3
20260505023544 62 156 0.9 7.8 0.00 0.00 0.00 49 1008.2
20260505023055 62 193 2.6 7.8 0.00 0.00 0.00 49 1008.3
20260505022545 62 185 2.6 7.8 0.00 0.00 0.00 48 1008.2
20260505022044 62 314 2.6 9.6 0.00 0.00 0.00 49 1008.2
20260505021549 62 202 2.6 9.6 0.00 0.00 0.00 48 1008.2
20260505021044 63 226 3.5 6.1 0.00 0.00 0.00 49 1008.1
20260505020544 63 162 2.6 7.0 0.00 0.00 0.00 47 1008.1
20260505020047 63 233 2.6 7.0 0.00 0.00 0.00 47 1008.1
20260505015544 63 190 2.6 9.6 0.00 0.00 0.00 47 1008.0
20260505015044 63 201 2.6 12.2 0.00 0.00 0.00 47 1007.8
20260505014553 63 199 2.6 12.2 0.00 0.00 0.00 46 1007.8
20260505014045 63 294 2.6 8.7 0.00 0.00 0.00 47 1007.8
20260505013543 63 219 2.6 11.3 0.00 0.00 0.00 45 1007.7
20260505013054 63 219 2.6 11.3 0.00 0.00 0.00 45 1007.5
20260505012543 63 209 2.6 7.8 0.00 0.00 0.00 45 1007.5
20260505012048 63 0 2.6 9.6 0.00 0.00 0.00 45 1007.4
20260505011553 63 208 1.7 9.6 0.00 0.00 0.00 43 1007.2
20260505011048 63 0 0.0 0.0 0.00 0.00 0.00 43 1007.1
20260505010544 63 0 0.0 0.0 0.00 0.00 0.00 41 1006.8
20260505010101 63 0 0.0 0.0 0.00 0.00 0.00 42 1006.8
20260505005544 63 0 0.0 2.6 0.00 0.00 0.00 43 1006.6
20260505005043 62 0 0.0 2.6 0.00 0.00 0.00 44 1006.6
20260505004550 62 166 0.0 0.0 0.00 0.00 0.00 44 1006.5
20260505004044 62 0 0.0 0.0 0.00 0.00 0.00 43 1006.4
20260505003543 63 0 0.0 0.0 0.00 0.00 0.00 42 1006.3
20260505003059 63 0 0.0 0.0 0.00 0.00 0.00 41 1006.1
20260505002544 64 0 0.0 0.0 0.00 0.00 0.00 40 1006.2
20260505002044 64 0 0.0 0.0 0.00 0.00 0.00 40 1006.0
20260505001551 65 0 0.0 0.0 0.00 0.00 0.00 38 1005.9
20260505001042 65 0 0.0 0.9 0.00 0.00 0.00 38 1005.9
20260505000541 66 0 0.0 2.6 0.00 0.00 0.00 38 1005.8
20260504235542 66 166 0.0 2.6 0.00 0.00 0.00 36 1005.8
20260504235042 67 0 0.0 3.5 0.00 0.00 0.00 36 1005.7
20260504234548 67 0 0.0 4.3 0.00 0.00 0.00 36 1005.6
20260504234041 67 165 0.9 4.3 0.00 0.00 0.00 36 1005.6
20260504233543 68 220 0.0 1.7 0.00 0.00 0.00 34 1005.5
20260504233053 68 0 0.0 3.5 0.00 0.00 0.00 34 1005.5
20260504232542 69 0 0.0 5.2 0.00 0.00 0.00 34 1005.5
20260504232042 69 0 0.0 5.2 0.00 0.00 0.00 33 1005.4
20260504231549 70 220 1.7 4.3 0.00 0.00 0.00 32 1005.2
20260504231039 70 304 0.9 4.3 0.00 0.00 0.00 31 1005.1
20260504230541 70 298 0.9 4.3 0.00 0.00 0.00 33 1005.0
20260504230049 70 248 0.9 8.7 0.00 0.00 0.00 31 1004.9
20260504225538 70 0 1.7 8.7 0.00 0.00 0.00 32 1004.9
20260504225041 70 218 2.6 7.0 0.00 0.00 0.00 32 1004.7
20260504224543 71 229 1.7 7.0 0.00 0.00 0.00 31 1004.7
20260504224045 71 246 1.7 8.7 0.00 0.00 0.00 32 1004.7
20260504223542 71 211 1.7 8.7 0.00 0.00 0.00 33 1004.8
20260504223049 71 322 1.7 7.0 0.00 0.00 0.00 33 1004.6
20260504222542 71 0 1.7 8.7 0.00 0.00 0.00 31 1004.6
20260504222044 71 294 3.5 8.7 0.00 0.00 0.00 31 1004.6
20260504221554 72 223 1.7 8.7 0.00 0.00 0.00 31 1004.8
20260504221042 72 194 2.6 9.6 0.00 0.00 0.00 31 1004.6
20260504220542 73 284 3.5 9.6 0.00 0.00 0.00 29 1004.6
20260504220110 73 0 0.9 8.7 0.00 0.00 0.00 32 1004.6
20260504215542 73 268 1.7 9.6 0.00 0.00 0.00 30 1004.7
20260504215042 73 229 2.6 9.6 0.00 0.00 0.00 31 1004.6
20260504214553 72 240 5.2 9.6 0.00 0.00 0.00 29 1004.5
20260504214042 72 233 1.7 7.0 0.00 0.00 0.00 32 1004.5
20260504213541 72 219 1.7 7.8 0.00 0.00 0.00 30 1004.6
20260504213050 73 182 2.6 12.2 0.00 0.00 0.00 31 1004.5
20260504212543 72 206 2.6 12.2 0.00 0.00 0.00 30 1004.7
20260504212039 73 211 3.5 10.4 0.00 0.00 0.00 30 1004.7
20260504211545 73 250 3.5 10.4 0.00 0.00 0.00 30 1004.7
20260504211042 74 205 1.7 9.6 0.00 0.00 0.00 30 1004.7
20260504210542 73 298 2.6 9.6 0.00 0.00 0.00 30 1004.6
20260504210052 73 180 3.5 13.9 0.00 0.00 0.00 30 1004.5
20260504205544 73 242 3.5 13.9 0.00 0.00 0.00 29 1004.5
20260504205044 73 179 5.2 13.0 0.00 0.00 0.00 31 1004.5
20260504204600 74 220 4.3 9.6 0.00 0.00 0.00 30 1004.4
20260504204043 73 232 1.7 7.0 0.00 0.00 0.00 29 1004.5
20260504203544 73 322 1.7 8.7 0.00 0.00 0.00 31 1004.6
20260504203057 72 0 1.7 10.4 0.00 0.00 0.00 29 1004.8
20260504202544 72 236 2.6 10.4 0.00 0.00 0.00 31 1004.7
20260504202044 72 229 2.6 15.6 0.00 0.00 0.00 29 1004.6
20260504201555 73 242 5.2 15.6 0.00 0.00 0.00 29 1004.7
20260504201045 73 293 3.5 8.7 0.00 0.00 0.00 29 1004.6
20260504200544 74 221 3.5 9.6 0.00 0.00 0.00 30 1004.8
20260504200100 74 329 4.3 9.6 0.00 0.00 0.00 28 1004.7
20260504195542 73 284 2.6 10.4 0.00 0.00 0.00 31 1004.6
20260504195044 73 157 2.6 14.8 0.00 0.00 0.00 32 1004.8
20260504194555 72 259 2.6 14.8 0.00 0.00 0.00 31 1004.7
20260504194047 71 200 2.6 9.6 0.00 0.00 0.00 29 1004.7
20260504193544 72 295 3.5 9.6 0.00 0.00 0.00 28 1004.9
20260504193052 72 13 2.6 12.2 0.00 0.00 0.00 29 1004.9
20260504192543 72 273 4.3 12.2 0.00 0.00 0.00 29 1004.8
20260504192043 72 198 3.5 14.8 0.00 0.00 0.00 29 1004.8
20260504191555 71 16 3.5 14.8 0.00 0.00 0.00 31 1004.7
20260504191044 72 256 3.5 10.4 0.00 0.00 0.00 28 1005.0
20260504190544 71 236 4.3 13.0 0.00 0.00 0.00 33 1005.0
20260504185544 70 193 5.2 14.8 0.00 0.00 0.00 32 1004.9
20260504185044 71 211 3.5 19.1 0.00 0.00 0.00 30 1005.0
20260504184613 71 269 6.1 19.1 0.00 0.00 0.00 28 1005.0
20260504184045 71 221 7.0 12.2 0.00 0.00 0.00 30 1004.8
20260504183545 71 248 4.3 12.2 0.00 0.00 0.00 30 1004.8
20260504183056 72 169 4.3 16.5 0.00 0.00 0.00 30 1005.0
20260504182545 72 214 4.3 16.5 0.00 0.00 0.00 32 1004.8
20260504182044 72 59 4.3 15.6 0.00 0.00 0.00 28 1005.1
20260504181552 71 244 5.2 14.8 0.00 0.00 0.00 29 1004.9
20260504181044 72 167 6.1 13.0 0.00 0.00 0.00 30 1004.9
20260504180545 72 198 3.5 14.8 0.00 0.00 0.00 32 1005.0
20260504180052 71 215 5.2 14.8 0.00 0.00 0.00 31 1005.1
20260504175543 71 184 5.2 15.6 0.00 0.00 0.00 30 1005.0
20260504175042 71 195 4.3 15.6 0.00 0.00 0.00 31 1005.2
20260504174549 70 198 7.0 14.8 0.00 0.00 0.00 30 1005.1
20260504174043 71 312 7.0 14.8 0.00 0.00 0.00 30 1005.2
20260504173541 71 195 3.5 12.2 0.00 0.00 0.00 32 1005.1
20260504173102 70 226 5.2 15.6 0.00 0.00 0.00 36 1005.2
20260504172541 69 221 5.2 15.6 0.00 0.00 0.00 33 1005.3
20260504172043 70 213 5.2 14.8 0.00 0.00 0.00 37 1005.4
20260504171551 70 225 6.1 16.5 0.00 0.00 0.00 34 1005.2
20260504171042 69 240 5.2 23.5 0.00 0.00 0.00 32 1005.2
20260504170542 69 218 7.0 23.5 0.00 0.00 0.00 31 1005.2
20260504151041 65 209 7.0 12.2 0.00 0.00 0.00 36 1006.3
20260504150540 65 182 6.1 12.2 0.00 0.00 0.00 36 1006.5